Tracking 31027 objects as of 19-Jul-2025
HD Live streaming from Space Station
objects crossing your sky now

SL-16 DEB

Track SL-16 DEB now!
10-day predictions


NORAD ID: 22500
Int'l Code: 1992-093GK
Perigee: 759.8 km
Apogee: 848.8 km
Inclination: 70.8 °
Period: 100.8 minutes
Semi major axis: 7175 km
RCS: 0.008 m2 (small)
Launch date: December 25, 1992
Source: Commonwealth of Independent States (former USSR) (CIS)
Launch site: TYURATAM MISSILE AND SPACE COMPLEX (TTMTR)

Note: This is SATELLITE DEBRIS
Your satellite tracking list
FLOCK 4V 13
Track 1 satellite(s)




NASA's NSSDC Master Catalog

Two Line Element Set (TLE):
1 22500U 92093GK  25199.54364064  .00000498  00000-0  21517-3 0  9990
2 22500  70.8474  33.8115 0061993 279.7114  79.7016 14.28372900682744
Source of the keplerian elements: AFSPC